Regional Weather Roundup
Issued by NWS

Home | Current Version | Previous Version | Graphics & Text | Print | Product List | Glossary On
Versions: 1 2 3 4 5 6 7 8 9 10 11 12 13 14 15 16 17 18 19 20 21 22 23 24 25 26 27 28 29 30 31 32 33 34 35 36 37 38 39 40 41 42 43 44 45 46 47 48 49 50
000
ASUS44 KMEG 182010
RWRTN
TENNESSEE HOURLY STATE WEATHER ROUNDUP
NATIONAL WEATHER SERVICE MEMPHIS TN
300 PM CDT FRI AUG 18 2017

TNZ002-004-019-021-049-052-054-088>092-182100-
WEST TENNESSEE

CITY           SKY/WX    TMP DP  RH WIND       PRES   REMARKS
MEMPHIS INTL   MOSUNNY   90  65  43 W5        29.99F HX  92
NWS MEMPHIS      N/A     91 N/A N/A MISG        N/A
JACKSON        SUNNY     88  66  48 NW9       29.99F HX  90
DYERSBURG      SUNNY     87  68  52 W6        30.00F HX  90
SOMERVILLE     SUNNY     88  68  51 NW6       29.98F HX  91
COVINGTON      SUNNY     88  64  45 NW7       29.99F
UNION CITY     SUNNY     86  66  51 NW6G14    29.96F
BOLIVAR        SUNNY     88  68  51 W7        29.99F HX  91
PARIS          SUNNY     86  66  51 VRB5      29.97F
HUNTINGDON     SUNNY     86  66  51 VRB5      29.97F
LEXINGTON      SUNNY     86  63  45 NW6       29.98F
SELMER         SUNNY     88  66  48 NW8       29.99F HX  90
SAVANNAH       MOSUNNY   88  66  48 VRB5      29.98F HX  90
$$

TNZ008-025-027-028-033-062-065-066-182100-
NORTH MIDDLE TENNESSEE

CITY           SKY/WX    TMP DP  RH WIND       PRES   REMARKS
NASHVILLE      PTSUNNY   88  61  40 NW9G17    29.99S
PORTLAND       MOSUNNY   82  64  54 VRB7G13   29.98F
CLARKSVILLE    MOSUNNY   85  63  47 SW6       29.97F
SMYRNA         PTSUNNY   87  65  47 NW13      29.98F
COOKEVILLE     MOSUNNY   82  66  57 CALM      29.99S
GALLATIN       SUNNY     86  63  45 NW10      30.00S
CROSSVILLE     MOSUNNY   81  62  52 NW10      30.03F
$$

TNZ061-075-076-078-094-096-097-182100-
SOUTH MIDDLE TENNESSEE

CITY           SKY/WX    TMP DP  RH WIND       PRES   REMARKS
FAYETTEVILLE   SUNNY     86  61  42 W9G15     29.99F
TULLAHOMA      MOSUNNY   86  64  48 W10       30.01S
WINCHESTER     MOSUNNY   84  66  54 VRB5      30.00S
MCMINNVILLE    MOSUNNY   84  70  61 VRB6      30.00S
COLUMBIA       MOSUNNY   86  64  48 VRB5G12   29.97S
SHELBYVILLE    MOSUNNY   86  66  51 W7G15     29.99S
$$

TNZ017-018-042-046-047-182100-
NORTHEAST TENNESSEE

CITY           SKY/WX    TMP DP  RH WIND       PRES   REMARKS
TRI CITIES     PTSUNNY   79  70  74 W8        29.98S
ELIZABETHTON   PTSUNNY   81  72  74 W7        29.98F
$$

TNZ012-013-036-069-073-074-182100-
CENTRAL EAST TENNESSEE

CITY           SKY/WX    TMP DP  RH WIND       PRES   REMARKS
KNOXVILLE      MOSUNNY   87  66  49 SW10      29.94F
OAK RIDGE      SUNNY     90  63  40 W8        29.96  HX  91
DOWNTOWN KNOXV MOSUNNY   88  70  55 W8G20     29.93F HX  92
GATLINBURG     MOSUNNY   88  68  51 W10       29.94F HX  91
MORRISTOWN     PTSUNNY   84  72  65 SW13      29.95F
JACKSBORO      MOSUNNY   86  66  51 CALM      29.99F
$$

TNZ083-085-099-182100-
SOUTHEAST TENNESSEE

CITY           SKY/WX    TMP DP  RH WIND       PRES   REMARKS
CHATTANOOGA    PTSUNNY   89  65  44 W9        29.96F HX  91
DAYTON         MOCLDY    88  70  55 W10       29.95F HX  92
$$

SKY/WX REPORTED AS FAIR MEANS FEW OR NO CLOUDS BELOW
12 THOUSAND FEET.





USA.gov is the U.S. government's official web portal to all federal, state and local government web resources and services.